Location: Seattle
(47.6064°N, 122.3308°W)
Time: 05:43:01
(UTC-08:00)

S-56A Canister/Altair - Pass Details

Date: 02 December 2020
Orbit: 633 x 2499 km, 38.9° (Epoch: 23 January)

Event Time Altitude Azimuth Distance (km) Brightness Sun altitude
Rises 23:39:20 0° 274° (W) 4,664 - -64.3°
Reaches altitude 10° 23:43:42 10° 261° (W) 3,309 - -64.4°
Maximum altitude 23:49:08 20° 217° (SW) 2,174 - -64.5°
Drops below altitude 10° 23:53:24 10° 170° (S) 2,503 - -64.5°
Sets 23:56:11 0° 153° (SSE) 3,240 - -64.6°
